| time (UTC) | temp F | wind direction | speed MPH | gust MPH | rain 1hr in | rain 24hr in | rain mn in | humidity % | barometer mb |
| 20260902091544 | 62 | 251 | 5.0 | 15.0 | 0.00 | 0.00 | 0.00 | 83 | 1007.6 |
| 20260902091025 | 62 | 139 | 5.0 | 15.0 | 0.00 | 0.00 | 0.00 | 83 | 1007.6 |
| 20260902090526 | 62 | 131 | 5.0 | 16.0 | 0.00 | 0.00 | 0.00 | 84 | 1007.7 |
| 20260902090048 | 62 | 167 | 7.0 | 16.0 | 0.00 | 0.00 | 0.00 | 84 | 1007.8 |
| 20260902085525 | 62 | 206 | 8.0 | 15.0 | 0.00 | 0.00 | 0.00 | 84 | 1007.8 |
| 20260902085024 | 62 | 127 | 4.0 | 11.0 | 0.00 | 0.00 | 0.00 | 84 | 1007.9 |
| 20260902084548 | 62 | 124 | 3.0 | 11.0 | 0.00 | 0.00 | 0.00 | 84 | 1007.9 |
| 20260902084028 | 62 | 240 | 5.0 | 11.0 | 0.00 | 0.00 | 0.00 | 84 | 1007.9 |
| 20260902083525 | 62 | 114 | 5.0 | 11.0 | 0.00 | 0.00 | 0.00 | 84 | 1007.9 |
| 20260902083045 | 62 | 148 | 5.0 | 11.0 | 0.00 | 0.00 | 0.00 | 84 | 1008.0 |
| 20260902082528 | 62 | 141 | 4.0 | 13.0 | 0.00 | 0.00 | 0.00 | 85 | 1007.9 |
| 20260902082032 | 62 | 244 | 6.0 | 13.0 | 0.00 | 0.00 | 0.00 | 85 | 1007.9 |
| 20260902081552 | 62 | 253 | 5.0 | 12.0 | 0.00 | 0.00 | 0.00 | 86 | 1007.9 |
| 20260902081027 | 62 | 153 | 4.0 | 9.0 | 0.00 | 0.00 | 0.00 | 86 | 1007.9 |
| 20260902080527 | 62 | 137 | 1.0 | 5.0 | 0.00 | 0.00 | 0.00 | 87 | 1008.1 |
| 20260902080049 | 62 | 185 | 2.0 | 5.0 | 0.00 | 0.00 | 0.00 | 86 | 1008.0 |
| 20260902075522 | 62 | 257 | 2.0 | 5.0 | 0.00 | 0.00 | 0.00 | 86 | 1007.8 |
| 20260902075028 | 62 | 167 | 2.0 | 5.0 | 0.00 | 0.00 | 0.00 | 86 | 1007.9 |
| 20260902074546 | 62 | 307 | 1.0 | 5.0 | 0.00 | 0.00 | 0.00 | 86 | 1007.7 |
| 20260902074025 | 62 | 179 | 2.0 | 5.0 | 0.00 | 0.00 | 0.00 | 86 | 1007.8 |
| 20260902073525 | 62 | 138 | 2.0 | 10.0 | 0.00 | 0.00 | 0.00 | 86 | 1007.7 |
| 20260902073048 | 62 | 219 | 2.0 | 10.0 | 0.00 | 0.00 | 0.00 | 86 | 1007.8 |
| 20260902072527 | 62 | 159 | 2.0 | 6.0 | 0.00 | 0.00 | 0.00 | 86 | 1007.9 |
| 20260902072025 | 62 | 216 | 2.0 | 5.0 | 0.00 | 0.00 | 0.00 | 86 | 1007.8 |
| 20260902071548 | 62 | 181 | 1.0 | 5.0 | 0.00 | 0.00 | 0.00 | 86 | 1007.9 |
| 20260902071028 | 62 | 158 | 3.0 | 5.0 | 0.00 | 0.00 | 0.00 | 86 | 1008.0 |
| 20260902070528 | 63 | 141 | 1.0 | 6.0 | 0.00 | 0.00 | 0.00 | 86 | 1008.0 |
| 20260902070050 | 63 | 148 | 2.0 | 7.0 | 0.00 | 0.00 | 0.00 | 86 | 1008.1 |
| 20260902065524 | 63 | 134 | 3.0 | 7.0 | 0.00 | 0.00 | 0.00 | 86 | 1008.0 |
| 20260902065027 | 63 | 143 | 5.0 | 8.0 | 0.00 | 0.00 | 0.00 | 86 | 1008.1 |
| 20260902064546 | 63 | 141 | 5.0 | 8.0 | 0.00 | 0.00 | 0.00 | 86 | 1008.2 |
| 20260902064025 | 63 | 151 | 3.0 | 6.0 | 0.00 | 0.00 | 0.00 | 86 | 1008.1 |
| 20260902063530 | 63 | 150 | 1.0 | 6.0 | 0.00 | 0.00 | 0.00 | 86 | 1008.1 |
| 20260902063043 | 63 | 154 | 2.0 | 8.0 | 0.00 | 0.00 | 0.00 | 86 | 1008.1 |
| 20260902062527 | 63 | 109 | 3.0 | 8.0 | 0.00 | 0.00 | 0.00 | 86 | 1008.2 |
| 20260902062029 | 63 | 206 | 4.0 | 10.0 | 0.00 | 0.00 | 0.00 | 86 | 1008.2 |
| 20260902061558 | 63 | 161 | 3.0 | 10.0 | 0.00 | 0.00 | 0.00 | 86 | 1008.2 |
| 20260902061025 | 63 | 132 | 3.0 | 6.0 | 0.00 | 0.00 | 0.00 | 85 | 1008.3 |
| 20260902060524 | 63 | 139 | 2.0 | 5.0 | 0.00 | 0.00 | 0.00 | 85 | 1008.3 |
| 20260902060056 | 63 | 162 | 2.0 | 7.0 | 0.00 | 0.00 | 0.00 | 85 | 1008.4 |
| 20260902055527 | 63 | 160 | 2.0 | 7.0 | 0.00 | 0.00 | 0.00 | 85 | 1008.4 |
| 20260902055026 | 63 | 136 | 3.0 | 11.0 | 0.00 | 0.00 | 0.00 | 84 | 1008.4 |
| 20260902054549 | 63 | 173 | 4.0 | 13.0 | 0.00 | 0.00 | 0.00 | 84 | 1008.3 |
| 20260902054026 | 63 | 145 | 7.0 | 13.0 | 0.00 | 0.00 | 0.00 | 84 | 1008.2 |
| 20260902053527 | 63 | 148 | 7.0 | 13.0 | 0.00 | 0.00 | 0.00 | 84 | 1008.2 |
| 20260902053043 | 63 | 151 | 7.0 | 13.0 | 0.00 | 0.00 | 0.00 | 83 | 1008.3 |
| 20260902052527 | 64 | 219 | 6.0 | 12.0 | 0.00 | 0.00 | 0.00 | 83 | 1008.3 |
| 20260902052026 | 64 | 211 | 6.0 | 13.0 | 0.00 | 0.00 | 0.00 | 83 | 1008.5 |
| 20260902051548 | 64 | 148 | 6.0 | 13.0 | 0.00 | 0.00 | 0.00 | 82 | 1008.4 |
| 20260902051024 | 64 | 152 | 5.0 | 11.0 | 0.00 | 0.00 | 0.00 | 82 | 1008.4 |
| 20260902050527 | 63 | 140 | 7.0 | 11.0 | 0.00 | 0.00 | 0.00 | 82 | 1008.4 |
| 20260902050047 | 63 | 134 | 5.0 | 12.0 | 0.00 | 0.00 | 0.00 | 82 | 1008.4 |
| 20260902045524 | 64 | 141 | 6.0 | 12.0 | 0.00 | 0.00 | 0.00 | 81 | 1008.4 |
| 20260902045025 | 64 | 138 | 7.0 | 12.0 | 0.00 | 0.00 | 0.00 | 81 | 1008.4 |
| 20260902044547 | 63 | 135 | 9.0 | 11.0 | 0.00 | 0.00 | 0.00 | 80 | 1008.3 |
| 20260902044026 | 63 | 127 | 7.0 | 9.0 | 0.00 | 0.00 | 0.00 | 81 | 1008.3 |
| 20260902043526 | 63 | 139 | 7.0 | 11.0 | 0.00 | 0.00 | 0.00 | 82 | 1008.3 |
| 20260902043049 | 63 | 125 | 7.0 | 11.0 | 0.00 | 0.00 | 0.00 | 82 | 1008.4 |
| 20260902042526 | 63 | 116 | 8.0 | 11.0 | 0.00 | 0.00 | 0.00 | 82 | 1008.4 |
| 20260902042023 | 63 | 132 | 6.0 | 9.0 | 0.00 | 0.00 | 0.00 | 82 | 1008.4 |
| 20260902041604 | 63 | 117 | 5.0 | 7.0 | 0.00 | 0.00 | 0.00 | 82 | 1008.5 |
| 20260902041024 | 63 | 101 | 3.0 | 4.0 | 0.00 | 0.00 | 0.00 | 81 | 1008.4 |
| 20260902040524 | 63 | 124 | 2.0 | 7.0 | 0.00 | 0.00 | 0.00 | 80 | 1008.6 |
| 20260902040049 | 63 | 170 | 3.0 | 7.0 | 0.00 | 0.00 | 0.00 | 81 | 1008.5 |
| 20260902035528 | 63 | 122 | 3.0 | 7.0 | 0.00 | 0.00 | 0.00 | 81 | 1008.5 |
| 20260902035029 | 62 | 150 | 2.0 | 5.0 | 0.00 | 0.00 | 0.00 | 82 | 1008.4 |
| 20260902034544 | 62 | 161 | 2.0 | 4.0 | 0.00 | 0.00 | 0.00 | 82 | 1008.3 |
| 20260902034025 | 62 | 150 | 2.0 | 4.0 | 0.00 | 0.00 | 0.00 | 82 | 1008.3 |
| 20260902033527 | 62 | 160 | 2.0 | 5.0 | 0.00 | 0.00 | 0.00 | 82 | 1008.3 |
| 20260902033043 | 63 | 129 | 1.0 | 5.0 | 0.00 | 0.00 | 0.00 | 81 | 1008.2 |
| 20260902032527 | 63 | 180 | 1.0 | 5.0 | 0.00 | 0.00 | 0.00 | 80 | 1008.2 |
| 20260902032029 | 63 | 127 | 2.0 | 5.0 | 0.00 | 0.00 | 0.00 | 80 | 1008.2 |
| 20260902031559 | 63 | 131 | 2.0 | 5.0 | 0.00 | 0.00 | 0.00 | 80 | 1008.3 |
| 20260902031026 | 64 | 108 | 2.0 | 4.0 | 0.00 | 0.00 | 0.00 | 80 | 1008.2 |
| 20260902030530 | 64 | 189 | 1.0 | 4.0 | 0.00 | 0.00 | 0.00 | 79 | 1008.2 |
| 20260902030045 | 64 | 210 | 2.0 | 6.0 | 0.00 | 0.00 | 0.00 | 80 | 1008.2 |
| 20260902025525 | 64 | 176 | 2.0 | 6.0 | 0.00 | 0.00 | 0.00 | 80 | 1008.1 |
| 20260902025032 | 64 | 150 | 3.0 | 6.0 | 0.00 | 0.00 | 0.00 | 80 | 1008.0 |
| 20260902024553 | 64 | 157 | 2.0 | 5.0 | 0.00 | 0.00 | 0.00 | 80 | 1008.0 |
| 20260902024024 | 64 | 160 | 2.0 | 5.0 | 0.00 | 0.00 | 0.00 | 79 | 1008.0 |
| 20260902023525 | 65 | 220 | 2.0 | 8.0 | 0.00 | 0.00 | 0.00 | 79 | 1008.1 |
| 20260902023054 | 65 | 141 | 3.0 | 8.0 | 0.00 | 0.00 | 0.00 | 79 | 1008.0 |
| 20260902022527 | 65 | 153 | 4.0 | 8.0 | 0.00 | 0.00 | 0.00 | 79 | 1008.0 |
| 20260902022026 | 65 | 138 | 4.0 | 8.0 | 0.00 | 0.00 | 0.00 | 78 | 1008.0 |
| 20260902021555 | 64 | 169 | 3.0 | 8.0 | 0.00 | 0.00 | 0.00 | 78 | 1007.9 |
| 20260902021026 | 65 | 134 | 3.0 | 8.0 | 0.00 | 0.00 | 0.00 | 78 | 1008.1 |
| 20260902020525 | 65 | 131 | 4.0 | 8.0 | 0.00 | 0.00 | 0.00 | 78 | 1008.0 |
| 20260902020047 | 65 | 218 | 4.0 | 9.0 | 0.00 | 0.00 | 0.00 | 77 | 1008.1 |
| 20260902015527 | 65 | 170 | 3.0 | 9.0 | 0.00 | 0.00 | 0.00 | 75 | 1008.1 |
| 20260902015028 | 65 | 125 | 4.0 | 9.0 | 0.00 | 0.00 | 0.00 | 75 | 1008.1 |
| 20260902014547 | 65 | 154 | 4.0 | 10.0 | 0.00 | 0.00 | 0.00 | 76 | 1008.1 |
| 20260902014027 | 65 | 232 | 4.0 | 10.0 | 0.00 | 0.00 | 0.00 | 75 | 1008.0 |
| 20260902013529 | 64 | 122 | 4.0 | 10.0 | 0.00 | 0.00 | 0.00 | 75 | 1008.2 |
| 20260902013051 | 65 | 157 | 4.0 | 10.0 | 0.00 | 0.00 | 0.00 | 75 | 1008.0 |
| 20260902012526 | 65 | 131 | 5.0 | 12.0 | 0.00 | 0.00 | 0.00 | 76 | 1008.0 |
| 20260902012024 | 65 | 165 | 5.0 | 12.0 | 0.00 | 0.00 | 0.00 | 75 | 1008.0 |
| 20260902011549 | 65 | 147 | 4.0 | 12.0 | 0.00 | 0.00 | 0.00 | 75 | 1008.0 |
| 20260902011025 | 65 | 176 | 3.0 | 10.0 | 0.00 | 0.00 | 0.00 | 75 | 1008.0 |
| 20260902010523 | 65 | 183 | 4.0 | 12.0 | 0.00 | 0.00 | 0.00 | 76 | 1007.9 |
| 20260902010047 | 65 | 113 | 6.0 | 12.0 | 0.00 | 0.00 | 0.00 | 75 | 1007.9 |
| 20260902005524 | 65 | 136 | 6.0 | 12.0 | 0.00 | 0.00 | 0.00 | 75 | 1007.9 |
| 20260902005024 | 65 | 170 | 6.0 | 12.0 | 0.00 | 0.00 | 0.00 | 75 | 1007.9 |
| 20260902004549 | 65 | 144 | 6.0 | 14.0 | 0.00 | 0.00 | 0.00 | 76 | 1007.9 |
| 20260902004027 | 65 | 158 | 7.0 | 14.0 | 0.00 | 0.00 | 0.00 | 76 | 1007.9 |
| 20260902003526 | 65 | 191 | 7.0 | 14.0 | 0.00 | 0.00 | 0.00 | 76 | 1007.9 |
| 20260902003051 | 65 | 141 | 8.0 | 13.0 | 0.00 | 0.00 | 0.00 | 76 | 1007.9 |
| 20260902002526 | 65 | 186 | 6.0 | 13.0 | 0.00 | 0.00 | 0.00 | 77 | 1007.9 |
| 20260902002025 | 65 | 149 | 6.0 | 13.0 | 0.00 | 0.00 | 0.00 | 77 | 1007.9 |
| 20260902001556 | 65 | 131 | 6.0 | 13.0 | 0.00 | 0.00 | 0.00 | 77 | 1007.8 |
| 20260902001024 | 65 | 155 | 6.0 | 12.0 | 0.00 | 0.00 | 0.00 | 76 | 1007.8 |
| 20260902000527 | 65 | 122 | 7.0 | 12.0 | 0.00 | 0.00 | 0.00 | 76 | 1007.9 |
| 20260902000055 | 65 | 148 | 6.0 | 14.0 | 0.00 | 0.00 | 0.00 | 76 | 1007.9 |
| 20260901235526 | 65 | 178 | 6.0 | 14.0 | 0.00 | 0.00 | 0.00 | 76 | 1007.9 |
| 20260901235024 | 65 | 127 | 7.0 | 12.0 | 0.00 | 0.00 | 0.00 | 76 | 1007.9 |
| 20260901234554 | 65 | 131 | 5.0 | 12.0 | 0.00 | 0.00 | 0.00 | 76 | 1007.9 |
| 20260901234024 | 66 | 123 | 4.0 | 12.0 | 0.00 | 0.00 | 0.00 | 75 | 1007.9 |
| 20260901233529 | 66 | 154 | 6.0 | 12.0 | 0.00 | 0.00 | 0.00 | 76 | 1008.0 |
| 20260901233105 | 66 | 146 | 6.0 | 12.0 | 0.00 | 0.00 | 0.00 | 76 | 1008.1 |
| 20260901232526 | 66 | 167 | 5.0 | 12.0 | 0.00 | 0.00 | 0.00 | 75 | 1008.1 |
| 20260901232026 | 66 | 148 | 6.0 | 11.0 | 0.00 | 0.00 | 0.00 | 75 | 1008.0 |
| 20260901231547 | 66 | 65 | 5.0 | 15.0 | 0.00 | 0.00 | 0.00 | 76 | 1008.0 |
| 20260901231024 | 66 | 207 | 4.0 | 15.0 | 0.00 | 0.00 | 0.00 | 76 | 1008.0 |
| 20260901230527 | 66 | 139 | 9.0 | 15.0 | 0.00 | 0.00 | 0.00 | 74 | 1008.0 |
| 20260901230047 | 66 | 141 | 6.0 | 13.0 | 0.00 | 0.00 | 0.00 | 75 | 1008.1 |
| 20260901225525 | 66 | 145 | 6.0 | 12.0 | 0.00 | 0.00 | 0.00 | 76 | 1008.0 |
| 20260901225028 | 66 | 156 | 5.0 | 11.0 | 0.00 | 0.00 | 0.00 | 77 | 1008.0 |
| 20260901224553 | 66 | 220 | 5.0 | 11.0 | 0.00 | 0.00 | 0.00 | 76 | 1008.0 |
| 20260901224025 | 66 | 168 | 5.0 | 13.0 | 0.00 | 0.00 | 0.00 | 76 | 1008.0 |
| 20260901223526 | 66 | 274 | 5.0 | 13.0 | 0.00 | 0.00 | 0.00 | 78 | 1007.9 |
| 20260901223048 | 66 | 177 | 5.0 | 12.0 | 0.00 | 0.00 | 0.00 | 77 | 1008.0 |
| 20260901222530 | 66 | 276 | 5.0 | 11.0 | 0.00 | 0.00 | 0.00 | 78 | 1008.1 |
| 20260901222025 | 66 | 139 | 5.0 | 9.0 | 0.00 | 0.00 | 0.00 | 78 | 1008.0 |
| 20260901221548 | 66 | 157 | 4.0 | 9.0 | 0.00 | 0.00 | 0.00 | 79 | 1008.0 |
| 20260901221026 | 65 | 124 | 5.0 | 15.0 | 0.00 | 0.00 | 0.00 | 80 | 1008.0 |
| 20260901220525 | 65 | 153 | 6.0 | 15.0 | 0.00 | 0.00 | 0.00 | 79 | 1008.1 |
| 20260901220046 | 65 | 127 | 6.0 | 12.0 | 0.00 | 0.00 | 0.00 | 78 | 1008.1 |
| 20260901215524 | 65 | 160 | 5.0 | 11.0 | 0.00 | 0.00 | 0.00 | 78 | 1008.1 |
| 20260901215027 | 66 | 167 | 4.0 | 8.0 | 0.00 | 0.00 | 0.00 | 79 | 1008.2 |
| 20260901214602 | 65 | 135 | 4.0 | 9.0 | 0.00 | 0.00 | 0.00 | 79 | 1008.2 |
| 20260901214025 | 65 | 146 | 4.0 | 11.0 | 0.00 | 0.00 | 0.00 | 79 | 1008.3 |
| 20260901213526 | 65 | 217 | 5.0 | 11.0 | 0.00 | 0.00 | 0.00 | 80 | 1008.3 |
| 20260901213115 | 65 | 212 | 6.0 | 11.0 | 0.00 | 0.00 | 0.00 | 80 | 1008.5 |
| 20260901212528 | 65 | 120 | 5.0 | 12.0 | 0.00 | 0.00 | 0.00 | 80 | 1008.4 |
| 20260901212028 | 65 | 169 | 5.0 | 12.0 | 0.00 | 0.00 | 0.00 | 81 | 1008.3 |
| 20260901211547 | 65 | 180 | 4.0 | 15.0 | 0.00 | 0.00 | 0.00 | 81 | 1008.4 |
| 20260901211025 | 65 | 106 | 6.0 | 15.0 | 0.00 | 0.00 | 0.00 | 80 | 1008.4 |
| 20260901210526 | 65 | 207 | 7.0 | 13.0 | 0.00 | 0.00 | 0.00 | 79 | 1008.3 |
| 20260901210047 | 66 | 255 | 8.0 | 12.0 | 0.00 | 0.00 | 0.00 | 78 | 1008.3 |
| 20260901205525 | 67 | 127 | 5.0 | 11.0 | 0.00 | 0.00 | 0.00 | 76 | 1008.4 |
| 20260901205025 | 68 | 88 | 4.0 | 8.0 | 0.00 | 0.00 | 0.00 | 77 | 1008.3 |
| 20260901204546 | 67 | 73 | 3.0 | 10.0 | 0.00 | 0.00 | 0.00 | 77 | 1008.4 |
| 20260901204025 | 67 | 183 | 3.0 | 10.0 | 0.00 | 0.00 | 0.00 | 77 | 1008.5 |
| 20260901203528 | 67 | 166 | 4.0 | 10.0 | 0.00 | 0.00 | 0.00 | 78 | 1008.6 |
| 20260901203114 | 67 | 103 | 5.0 | 10.0 | 0.00 | 0.00 | 0.00 | 77 | 1008.6 |
| 20260901202525 | 67 | 103 | 4.0 | 9.0 | 0.00 | 0.00 | 0.00 | 78 | 1008.5 |
| 20260901202026 | 67 | 158 | 4.0 | 8.0 | 0.00 | 0.00 | 0.00 | 78 | 1008.6 |
| 20260901201555 | 67 | 137 | 4.0 | 9.0 | 0.00 | 0.00 | 0.00 | 77 | 1008.6 |
| 20260901201026 | 67 | 107 | 4.0 | 9.0 | 0.00 | 0.00 | 0.00 | 76 | 1008.8 |
| 20260901200526 | 67 | 188 | 4.0 | 8.0 | 0.00 | 0.00 | 0.00 | 76 | 1008.8 |
| 20260901200047 | 68 | 176 | 4.0 | 8.0 | 0.00 | 0.00 | 0.00 | 75 | 1008.8 |
| 20260901195525 | 67 | 167 | 5.0 | 8.0 | 0.00 | 0.00 | 0.00 | 75 | 1008.8 |
| 20260901195024 | 68 | 113 | 4.0 | 8.0 | 0.00 | 0.00 | 0.00 | 75 | 1008.8 |
| 20260901194543 | 68 | 201 | 3.0 | 9.0 | 0.00 | 0.00 | 0.00 | 75 | 1008.9 |
| 20260901194025 | 68 | 101 | 3.0 | 9.0 | 0.00 | 0.00 | 0.00 | 76 | 1008.9 |
| 20260901193524 | 67 | 127 | 5.0 | 9.0 | 0.00 | 0.00 | 0.00 | 75 | 1008.9 |
| 20260901193051 | 68 | 88 | 4.0 | 9.0 | 0.00 | 0.00 | 0.00 | 75 | 1009.0 |
| 20260901192525 | 68 | 134 | 5.0 | 8.0 | 0.00 | 0.00 | 0.00 | 75 | 1009.1 |
| 20260901192025 | 68 | 190 | 4.0 | 10.0 | 0.00 | 0.00 | 0.00 | 75 | 1009.0 |
| 20260901191603 | 67 | 153 | 3.0 | 10.0 | 0.00 | 0.00 | 0.00 | 76 | 1009.0 |
| 20260901191025 | 68 | 175 | 4.0 | 10.0 | 0.00 | 0.00 | 0.00 | 74 | 1009.0 |
| 20260901190528 | 68 | 233 | 2.0 | 6.0 | 0.00 | 0.00 | 0.00 | 74 | 1009.1 |
| 20260901190046 | 68 | 12 | 2.0 | 7.0 | 0.00 | 0.00 | 0.00 | 75 | 1009.1 |
| 20260901185524 | 68 | 271 | 3.0 | 7.0 | 0.00 | 0.00 | 0.00 | 73 | 1009.0 |
| 20260901185028 | 69 | 146 | 3.0 | 7.0 | 0.00 | 0.00 | 0.00 | 73 | 1009.1 |
| 20260901184554 | 69 | 174 | 4.0 | 7.0 | 0.00 | 0.00 | 0.00 | 72 | 1009.1 |
| 20260901184026 | 69 | 224 | 3.0 | 7.0 | 0.00 | 0.00 | 0.00 | 73 | 1009.0 |
| 20260901183529 | 69 | 113 | 3.0 | 7.0 | 0.00 | 0.00 | 0.00 | 73 | 1009.1 |
| 20260901183057 | 68 | 135 | 3.0 | 6.0 | 0.00 | 0.00 | 0.00 | 73 | 1009.1 |
| 20260901182528 | 68 | 136 | 2.0 | 5.0 | 0.00 | 0.00 | 0.00 | 75 | 1009.0 |
| 20260901182026 | 67 | 205 | 2.0 | 5.0 | 0.00 | 0.00 | 0.00 | 76 | 1009.0 |
| 20260901181550 | 67 | 170 | 1.0 | 3.0 | 0.00 | 0.00 | 0.00 | 77 | 1009.1 |
| 20260901181025 | 66 | 203 | 1.0 | 3.0 | 0.00 | 0.00 | 0.00 | 79 | 1009.2 |
| 20260901180527 | 65 | 120 | 0.0 | 3.0 | 0.00 | 0.00 | 0.00 | 79 | 1009.2 |
| 20260901180048 | 65 | 131 | 0.0 | 3.0 | 0.00 | 0.00 | 0.00 | 80 | 1009.3 |
| 20260901175529 | 64 | 178 | 1.0 | 4.0 | 0.00 | 0.00 | 0.00 | 81 | 1009.3 |
| 20260901175027 | 64 | 0 | 1.0 | 4.0 | 0.00 | 0.00 | 0.00 | 81 | 1009.3 |
| 20260901174554 | 64 | 211 | 2.0 | 4.0 | 0.00 | 0.00 | 0.00 | 82 | 1009.3 |
| 20260901174025 | 64 | 179 | 2.0 | 4.0 | 0.00 | 0.00 | 0.00 | 84 | 1009.4 |
| 20260901173529 | 64 | 155 | 1.0 | 3.0 | 0.00 | 0.00 | 0.00 | 84 | 1009.3 |
| 20260901173054 | 63 | 152 | 1.0 | 4.0 | 0.00 | 0.00 | 0.00 | 84 | 1009.3 |
| 20260901172525 | 63 | 166 | 2.0 | 4.0 | 0.00 | 0.00 | 0.00 | 84 | 1009.3 |
| 20260901172027 | 64 | 117 | 1.0 | 4.0 | 0.00 | 0.00 | 0.00 | 85 | 1009.4 |
| 20260901171550 | 64 | 224 | 1.0 | 4.0 | 0.00 | 0.00 | 0.00 | 84 | 1009.4 |
| 20260901171023 | 64 | 154 | 1.0 | 4.0 | 0.00 | 0.00 | 0.00 | 85 | 1009.3 |
| 20260901170526 | 63 | 201 | 2.0 | 4.0 | 0.00 | 0.00 | 0.00 | 86 | 1009.3 |
| 20260901170048 | 63 | 167 | 1.0 | 4.0 | 0.00 | 0.00 | 0.00 | 87 | 1009.3 |
| 20260901165525 | 62 | 193 | 1.0 | 4.0 | 0.00 | 0.00 | 0.00 | 88 | 1009.3 |
| 20260901165026 | 62 | 157 | 1.0 | 4.0 | 0.00 | 0.00 | 0.00 | 90 | 1009.3 |
| 20260901164557 | 61 | 125 | 2.0 | 4.0 | 0.00 | 0.00 | 0.00 | 90 | 1009.3 |
| 20260901164026 | 61 | 114 | 0.0 | 2.0 | 0.00 | 0.00 | 0.00 | 91 | 1009.2 |
| 20260901163528 | 60 | 0 | 0.0 | 2.0 | 0.00 | 0.00 | 0.00 | 91 | 1009.2 |
| 20260901163057 | 60 | 0 | 1.0 | 3.0 | 0.00 | 0.00 | 0.00 | 91 | 1009.3 |
| 20260901162525 | 60 | 130 | 1.0 | 3.0 | 0.00 | 0.00 | 0.00 | 92 | 1009.4 |
| 20260901162025 | 59 | 114 | 2.0 | 3.0 | 0.00 | 0.00 | 0.00 | 92 | 1009.4 |
| 20260901161551 | 59 | 72 | 1.0 | 4.0 | 0.00 | 0.00 | 0.00 | 92 | 1009.3 |
| 20260901161027 | 59 | 117 | 2.0 | 4.0 | 0.00 | 0.00 | 0.00 | 92 | 1009.3 |
| 20260901160526 | 59 | 91 | 1.0 | 4.0 | 0.00 | 0.00 | 0.00 | 94 | 1009.3 |
| 20260901160046 | 59 | 79 | 2.0 | 4.0 | 0.00 | 0.00 | 0.00 | 94 | 1009.4 |
| 20260901155528 | 58 | 79 | 2.0 | 3.0 | 0.00 | 0.00 | 0.00 | 94 | 1009.4 |
| 20260901155025 | 58 | 76 | 2.0 | 3.0 | 0.00 | 0.00 | 0.00 | 95 | 1009.3 |
| 20260901154550 | 58 | 51 | 2.0 | 4.0 | 0.00 | 0.00 | 0.00 | 95 | 1009.4 |
| 20260901154025 | 58 | 84 | 2.0 | 4.0 | 0.00 | 0.00 | 0.00 | 96 | 1009.5 |
| 20260901153527 | 57 | 70 | 2.0 | 3.0 | 0.00 | 0.00 | 0.00 | 96 | 1009.4 |
| 20260901153113 | 57 | 78 | 1.0 | 3.0 | 0.00 | 0.00 | 0.00 | 97 | 1009.4 |
| 20260901152524 | 56 | 79 | 2.0 | 3.0 | 0.00 | 0.00 | 0.00 | 97 | 1009.4 |
| 20260901152024 | 56 | 88 | 2.0 | 3.0 | 0.00 | 0.00 | 0.00 | 97 | 1009.4 |
| 20260901151547 | 56 | 89 | 1.0 | 2.0 | 0.00 | 0.00 | 0.00 | 97 | 1009.3 |
| 20260901151027 | 56 | 89 | 1.0 | 2.0 | 0.00 | 0.00 | 0.00 | 97 | 1009.4 |
| 20260901150530 | 55 | 0 | 0.0 | 1.0 | 0.00 | 0.00 | 0.00 | 97 | 1009.3 |
| 20260901150047 | 55 | 0 | 0.0 | 0.0 | 0.00 | 0.00 | 0.00 | 97 | 1009.3 |
| 20260901145525 | 55 | 0 | 0.0 | 0.0 | 0.00 | 0.00 | 0.00 | 97 | 1009.2 |
| 20260901145031 | 54 | 0 | 0.0 | 0.0 | 0.00 | 0.00 | 0.00 | 97 | 1009.2 |
| 20260901144547 | 54 | 0 | 0.0 | 0.0 | 0.00 | 0.00 | 0.00 | 98 | 1009.0 |
| 20260901144029 | 54 | 0 | 0.0 | 0.0 | 0.00 | 0.00 | 0.00 | 97 | 1009.1 |
| 20260901143527 | 53 | 0 | 0.0 | 0.0 | 0.00 | 0.00 | 0.00 | 97 | 1009.0 |
| 20260901143050 | 53 | 0 | 0.0 | 0.0 | 0.00 | 0.00 | 0.00 | 97 | 1009.0 |
| 20260901142525 | 53 | 0 | 0.0 | 0.0 | 0.00 | 0.00 | 0.00 | 97 | 1009.0 |
| 20260901142028 | 52 | 0 | 0.0 | 0.0 | 0.00 | 0.00 | 0.00 | 97 | 1008.9 |
| 20260901141552 | 52 | 0 | 0.0 | 0.0 | 0.00 | 0.00 | 0.00 | 97 | 1008.9 |
| 20260901141026 | 52 | 0 | 0.0 | 0.0 | 0.00 | 0.00 | 0.00 | 96 | 1008.7 |
| 20260901140531 | 53 | 0 | 0.0 | 0.0 | 0.00 | 0.00 | 0.00 | 97 | 1008.6 |
| 20260901140048 | 53 | 0 | 0.0 | 1.0 | 0.00 | 0.00 | 0.00 | 96 | 1008.7 |
| 20260901135525 | 53 | 0 | 0.0 | 1.0 | 0.00 | 0.00 | 0.00 | 97 | 1008.7 |
| 20260901135026 | 53 | 17 | 0.0 | 1.0 | 0.00 | 0.00 | 0.00 | 97 | 1008.7 |
| 20260901134545 | 52 | 0 | 0.0 | 0.0 | 0.00 | 0.00 | 0.00 | 97 | 1008.6 |
| 20260901134026 | 52 | 0 | 0.0 | 0.0 | 0.00 | 0.00 | 0.00 | 97 | 1008.5 |
| 20260901133526 | 52 | 0 | 0.0 | 0.0 | 0.00 | 0.00 | 0.00 | 96 | 1008.4 |
| 20260901133048 | 52 | 0 | 0.0 | 1.0 | 0.00 | 0.00 | 0.00 | 97 | 1008.4 |
| 20260901132526 | 52 | 0 | 0.0 | 1.0 | 0.00 | 0.00 | 0.00 | 97 | 1008.5 |
| 20260901132026 | 52 | 0 | 0.0 | 1.0 | 0.00 | 0.00 | 0.00 | 97 | 1008.5 |
| 20260901131545 | 52 | 300 | 0.0 | 1.0 | 0.00 | 0.00 | 0.00 | 96 | 1008.5 |
| 20260901131024 | 52 | 300 | 0.0 | 1.0 | 0.00 | 0.00 | 0.00 | 97 | 1008.6 |
| 20260901130525 | 52 | 326 | 0.0 | 1.0 | 0.00 | 0.00 | 0.00 | 96 | 1008.5 |
| 20260901130044 | 52 | 327 | 0.0 | 1.0 | 0.00 | 0.00 | 0.00 | 96 | 1008.5 |
| 20260901125524 | 52 | 327 | 0.0 | 1.0 | 0.00 | 0.00 | 0.00 | 96 | 1008.6 |
| 20260901125024 | 52 | 0 | 0.0 | 1.0 | 0.00 | 0.00 | 0.00 | 96 | 1008.6 |
| 20260901124553 | 52 | 0 | 0.0 | 0.0 | 0.00 | 0.00 | 0.00 | 96 | 1008.6 |
| 20260901124024 | 52 | 0 | 0.0 | 1.0 | 0.00 | 0.00 | 0.00 | 96 | 1008.6 |
| 20260901123525 | 52 | 0 | 0.0 | 1.0 | 0.00 | 0.00 | 0.00 | 96 | 1008.6 |
| 20260901123048 | 52 | 292 | 1.0 | 1.0 | 0.00 | 0.00 | 0.00 | 96 | 1008.7 |
| 20260901122526 | 52 | 294 | 0.0 | 1.0 | 0.00 | 0.00 | 0.00 | 96 | 1008.6 |
| 20260901122025 | 52 | 0 | 0.0 | 1.0 | 0.00 | 0.00 | 0.00 | 96 | 1008.5 |
| 20260901121547 | 52 | 304 | 0.0 | 1.0 | 0.00 | 0.00 | 0.00 | 96 | 1008.5 |
| 20260901121028 | 52 | 304 | 0.0 | 1.0 | 0.00 | 0.00 | 0.00 | 96 | 1008.6 |
| 20260901120524 | 53 | 304 | 0.0 | 1.0 | 0.00 | 0.00 | 0.00 | 96 | 1008.5 |
| 20260901120049 | 53 | 297 | 1.0 | 1.0 | 0.00 | 0.00 | 0.00 | 96 | 1008.5 |
| 20260901115524 | 53 | 292 | 0.0 | 1.0 | 0.00 | 0.00 | 0.00 | 96 | 1008.4 |
| 20260901115028 | 53 | 292 | 0.0 | 1.0 | 0.00 | 0.00 | 0.00 | 96 | 1008.5 |
| 20260901114546 | 53 | 292 | 1.0 | 1.0 | 0.00 | 0.00 | 0.00 | 96 | 1008.4 |
| 20260901114025 | 53 | 300 | 0.0 | 0.0 | 0.00 | 0.00 | 0.00 | 96 | 1008.5 |
| 20260901113525 | 53 | 0 | 0.0 | 0.0 | 0.00 | 0.00 | 0.00 | 96 | 1008.5 |
| 20260901113049 | 53 | 0 | 0.0 | 0.0 | 0.00 | 0.00 | 0.00 | 96 | 1008.6 |
| 20260901112526 | 53 | 0 | 0.0 | 0.0 | 0.00 | 0.00 | 0.00 | 96 | 1008.6 |
| 20260901112026 | 53 | 0 | 0.0 | 1.0 | 0.00 | 0.00 | 0.00 | 96 | 1008.4 |
| 20260901111549 | 53 | 0 | 0.0 | 1.0 | 0.00 | 0.00 | 0.00 | 96 | 1008.4 |
| 20260901111025 | 53 | 0 | 0.0 | 1.0 | 0.00 | 0.00 | 0.00 | 96 | 1008.5 |
| 20260901110524 | 53 | 297 | 0.0 | 1.0 | 0.00 | 0.00 | 0.00 | 96 | 1008.5 |
| 20260901110047 | 53 | 297 | 0.0 | 1.0 | 0.00 | 0.00 | 0.00 | 96 | 1008.5 |
| 20260901105525 | 53 | 297 | 0.0 | 1.0 | 0.00 | 0.00 | 0.00 | 96 | 1008.5 |
| 20260901105025 | 54 | 297 | 0.0 | 1.0 | 0.00 | 0.00 | 0.00 | 96 | 1008.3 |
| 20260901104546 | 54 | 0 | 0.0 | 1.0 | 0.00 | 0.00 | 0.00 | 96 | 1008.5 |
| 20260901104026 | 54 | 0 | 1.0 | 1.0 | 0.00 | 0.00 | 0.00 | 96 | 1008.4 |
| 20260901103525 | 54 | 297 | 1.0 | 1.0 | 0.00 | 0.00 | 0.00 | 95 | 1008.3 |
| 20260901103055 | 54 | 297 | 0.0 | 1.0 | 0.00 | 0.00 | 0.00 | 96 | 1008.2 |
| 20260901102527 | 54 | 297 | 1.0 | 1.0 | 0.00 | 0.00 | 0.00 | 96 | 1008.3 |
| 20260901102026 | 54 | 314 | 1.0 | 1.0 | 0.00 | 0.00 | 0.00 | 95 | 1008.2 |
| 20260901101607 | 54 | 6 | 0.0 | 1.0 | 0.00 | 0.00 | 0.00 | 96 | 1008.3 |
| 20260901101022 | 54 | 0 | 0.0 | 0.0 | 0.00 | 0.00 | 0.00 | 96 | 1008.2 |
| 20260901100527 | 54 | 0 | 0.0 | 1.0 | 0.00 | 0.00 | 0.00 | 95 | 1008.2 |
| 20260901100049 | 55 | 0 | 0.0 | 1.0 | 0.00 | 0.00 | 0.00 | 95 | 1008.2 |
| 20260901095525 | 55 | 6 | 0.0 | 1.0 | 0.00 | 0.00 | 0.00 | 96 | 1008.1 |
| 20260901095024 | 55 | 6 | 0.0 | 1.0 | 0.00 | 0.00 | 0.00 | 96 | 1008.2 |
| 20260901094546 | 55 | 287 | 0.0 | 1.0 | 0.00 | 0.00 | 0.00 | 96 | 1008.2 |
| 20260901094025 | 55 | 287 | 1.0 | 2.0 | 0.00 | 0.00 | 0.00 | 96 | 1008.1 |
| 20260901093525 | 55 | 287 | 1.0 | 2.0 | 0.00 | 0.00 | 0.00 | 95 | 1008.2 |
| 20260901093050 | 55 | 287 | 1.0 | 2.0 | 0.00 | 0.00 | 0.00 | 95 | 1008.2 |
| 20260901092525 | 55 | 287 | 0.0 | 1.0 | 0.00 | 0.00 | 0.00 | 95 | 1008.2 |
| 20260901092030 | 55 | 287 | 1.0 | 1.0 | 0.00 | 0.00 | 0.00 | 95 | 1008.4 |